Location: B?dargowo
(53.3916°N, 14.4413°E)
Time: 21:45:20
(UTC+00:00)

THORAD AGENA D DEB - Visible Passes

Search period start: 26 February 2024 00:00
Search period end: 07 March 2024 00:00
Orbit: 968 x 978 km, 100.2° (Epoch: 25 February)

Date Brightness Start Highest point End Pass type
(mag) Time Alt. Az. Time Alt. Az. Time Alt. Az.
26 Feb ? 02:59:01 10° E 03:02:57 18° NE 03:06:54 10° N visible
26 Feb ? 04:38:56 10° SE 04:44:57 63° ENE 04:51:01 10° NNW visible
26 Feb ? 17:13:42 10° NE 17:18:02 20° E 17:22:21 10° SE visible
26 Feb ? 18:55:47 10° NNE 19:01:56 88° ESE 19:08:03 10° SSW visible
26 Feb ? 20:39:32 10° N 20:44:21 25° NW 20:49:08 10° WSW visible
27 Feb ? 03:21:55 10° E 03:26:37 24° NE 03:31:18 10° N visible
27 Feb ? 05:02:48 10° SSE 05:08:56 86° ENE 05:15:07 10° NNW visible
27 Feb ? 17:37:12 10° NE 17:42:23 28° E 17:47:32 10° SSE visible
27 Feb ? 19:19:51 10° NNE 19:25:56 68° WNW 19:31:58 10° SSW visible
27 Feb ? 21:03:54 10° N 21:08:01 19° NW 21:12:06 10° W visible
28 Feb ? 03:45:05 10° ESE 03:50:20 31° NE 03:55:35 10° N visible
28 Feb ? 18:00:56 10° NNE 18:06:39 40° E 18:12:19 10° SSE visible
28 Feb ? 19:44:00 10° N 19:49:51 49° WNW 19:55:40 10° SW visible
28 Feb ? 21:28:25 10° N 21:31:36 15° NW 21:34:47 10° WNW visible
29 Feb ? 02:30:01 10° ENE 02:32:32 13° NE 02:35:04 10° NNE visible
29 Feb ? 04:08:27 10° SE 04:14:07 41° ENE 04:19:49 10° N visible
29 Feb ? 18:24:48 10° NNE 18:30:49 57° ESE 18:36:48 10° S visible
29 Feb ? 20:08:11 10° N 20:13:41 36° WNW 20:19:09 10° WSW visible
29 Feb ? 21:53:17 10° NNW 21:55:08 11° NW 21:56:59 10° NW visible
01 Mar ? 02:52:28 10° ENE 02:56:06 17° NE 02:59:44 10° N visible
01 Mar ? 04:32:02 10° SE 04:38:00 56° ENE 04:43:59 10° NNW visible
01 Mar ? 18:48:46 10° NNE 18:54:55 79° ESE 19:01:01 10° SSW visible
01 Mar ? 20:32:26 10° N 20:37:27 27° NW 20:42:25 10° WSW visible
02 Mar ? 03:15:17 10° E 03:19:43 21° NE 03:24:10 10° N visible
02 Mar ? 04:55:50 10° SSE 05:01:56 77° ENE 05:08:05 10° NNW visible
02 Mar ? 17:30:19 10° NE 17:35:16 25° E 17:40:09 10° SE visible
02 Mar ? 19:12:48 10° NNE 19:18:55 76° WNW 19:25:00 10° SSW visible
02 Mar ? 20:56:45 10° N 21:01:07 21° NW 21:05:28 10° W visible
03 Mar ? 03:38:20 10° ESE 03:43:24 28° NE 03:48:29 10° N visible
03 Mar ? 17:53:58 10° NNE 17:59:32 35° E 18:05:03 10° SSE visible
03 Mar ? 19:36:55 10° NNE 19:42:51 55° WNW 19:48:45 10° SW visible
03 Mar ? 21:21:12 10° N 21:24:44 16° NW 21:28:15 10° WNW visible
04 Mar ? 02:23:41 10° NE 02:25:41 12° NE 02:27:41 10° NNE visible
04 Mar ? 04:01:38 10° ESE 04:07:10 37° ENE 04:12:43 10° N visible
04 Mar ? 18:17:48 10° NNE 18:23:44 50° E 18:29:37 10° S visible
04 Mar ? 20:01:05 10° N 20:06:42 40° WNW 20:12:18 10° SW visible
04 Mar ? 21:45:52 10° NNW 21:48:16 13° NW 21:50:39 10° WNW visible
05 Mar ? 02:45:55 10° ENE 02:49:12 15° NE 02:52:29 10° N visible
05 Mar ? 04:25:07 10° SE 04:31:00 50° ENE 04:36:53 10° N visible
05 Mar ? 18:41:44 10° NNE 18:47:51 71° ESE 18:53:55 10° S visible
05 Mar ? 20:25:17 10° N 20:30:28 30° NW 20:35:39 10° WSW visible
06 Mar ? 03:08:37 10° E 03:12:47 20° NE 03:16:58 10° N visible
06 Mar ? 04:48:49 10° SSE 04:54:54 69° ENE 05:01:00 10° NNW visible
06 Mar ? 17:23:27 10° NE 17:28:04 22° E 17:32:40 10° SE visible
06 Mar ? 19:05:44 10° NNE 19:11:52 84° WNW 19:17:58 10° SSW visible
06 Mar ? 20:49:34 10° N 20:54:10 23° NW 20:58:46 10° W visible
